Location: Montr�al
(45.5000°N, 73.5830°W)
Time: 16:51:32
(UTC-04:00)

Cosmos 1151 Rocket - Visible Passes

Search period start: 29 July 2014 00:00
Search period end: 08 August 2014 00:00
Orbit: 595 x 618 km, 82.5° (Epoch: 28 July)

Date Brightness Start Highest point End Pass type
(mag) Time Alt. Az. Time Alt. Az. Time Alt. Az.
29 Jul 4.0 04:00:50 10° SSE 04:05:02 46° E 04:09:15 10° NNE visible
30 Jul 3.2 04:14:02 10° S 04:18:25 79° E 04:22:49 10° NNE visible
31 Jul 5.7 02:52:48 10° ESE 02:54:50 13° E 02:56:52 10° NE visible
31 Jul 3.1 04:27:44 11° SSW 04:31:52 62° W 04:36:14 10° N visible
01 Aug 5.2 03:04:45 10° SE 03:08:02 21° E 03:11:20 10° NE visible
01 Aug 3.8 04:41:31 11° SW 04:45:23 37° WNW 04:49:30 10° N visible
02 Aug 4.5 03:18:22 16° SSE 03:21:19 34° E 03:25:17 10° NNE visible
02 Aug 4.4 04:55:26 10° SW 04:58:59 24° WNW 05:02:33 10° NNW visible
03 Aug 3.5 03:32:06 23° SSE 03:34:39 57° E 03:38:58 10° NNE visible
04 Aug 3.0 03:45:48 28° S 03:48:04 86° W 03:52:28 10° N visible
05 Aug 5.4 02:22:34 13° ESE 02:24:23 16° E 02:27:00 10° NE visible
05 Aug 3.3 03:59:29 28° SW 04:01:32 51° WNW 04:05:49 10° N visible
06 Aug 4.8 02:36:14 21° ESE 02:37:37 25° E 02:41:12 10° NNE visible
06 Aug 4.0 04:13:09 22° WSW 04:15:05 31° WNW 04:19:00 10° N visible
07 Aug 4.0 02:49:53 35° SE 02:50:55 41° E 02:55:01 10° NNE visible
07 Aug 4.7 04:26:47 15° WSW 04:28:42 20° WNW 04:31:57 10° NNW visible
